FW0810 Weather Reports


time (UTC)temp
C
wind
direction
speed
KPH
gust
KPH
rain 1hr
cm
rain 24hr
cm
rain mn
cm
humidity
%
barometer
mb
20260831144805 33 258 0.0 9.7 0.00 0.00 0.00 43 1018.3
20260831144310 33 1 0.0 8.0 0.00 0.00 0.00 44 1018.4
20260831143305 33 283 1.6 11.3 0.00 0.00 0.00 46 1018.4
20260831142816 33 295 1.6 11.3 0.00 0.00 0.00 45 1018.4
20260831141804 33 269 3.2 12.9 0.00 0.00 0.00 45 1018.4
20260831141304 33 266 1.6 12.9 0.00 0.00 0.00 45 1018.4
20260831140303 33 287 3.2 14.5 0.00 0.00 0.00 45 1018.4
20260831135803 33 264 3.2 14.5 0.00 0.00 0.00 46 1018.5
20260831135306 33 258 1.6 12.9 0.00 0.00 0.00 46 1018.6
20260831134805 33 325 3.2 17.7 0.00 0.00 0.00 46 1018.7
20260831134301 33 256 3.2 17.7 0.00 0.00 0.00 45 1018.6
20260831133801 33 1 1.6 12.9 0.00 0.00 0.00 45 1018.7
20260831133257 33 222 1.6 9.7 0.00 0.00 0.00 47 1018.7
20260831132800 32 276 1.6 11.3 0.00 0.00 0.00 47 1018.7
20260831132258 33 194 3.2 16.1 0.00 0.00 0.00 46 1018.7
20260831131757 32 278 3.2 16.1 0.00 0.00 0.00 45 1018.8
20260831131257 33 317 1.6 11.3 0.00 0.00 0.00 45 1018.8
20260831130758 32 260 1.6 11.3 0.00 0.00 0.00 45 1018.9
20260831130259 32 257 3.2 16.1 0.00 0.00 0.00 45 1018.9
20260831125757 32 278 3.2 19.3 0.00 0.00 0.00 46 1018.9
20260831125258 32 328 3.2 19.3 0.00 0.00 0.00 45 1019.0
20260831124757 32 288 1.6 17.7 0.00 0.00 0.00 45 1018.9
20260831124259 32 238 1.6 17.7 0.00 0.00 0.00 45 1019.0
20260831123758 32 300 1.6 11.3 0.00 0.00 0.00 46 1019.0
20260831123258 32 281 1.6 6.4 0.00 0.00 0.00 45 1018.9
20260831122259 32 285 3.2 12.9 0.00 0.00 0.00 45 1019.0
20260831121757 32 247 3.2 19.3 0.00 0.00 0.00 46 1019.0
20260831121255 32 271 3.2 19.3 0.00 0.00 0.00 46 1019.1
20260831120756 32 226 1.6 12.9 0.00 0.00 0.00 48 1019.0
20260831115755 32 326 1.6 9.7 0.00 0.00 0.00 48 1019.0
20260831115253 32 304 1.6 9.7 0.00 0.00 0.00 47 1019.1
20260831114751 32 207 1.6 9.7 0.00 0.00 0.00 47 1019.0
20260831114251 31 1 1.6 11.3 0.00 0.00 0.00 47 1019.1
20260831113751 31 302 1.6 11.3 0.00 0.00 0.00 47 1019.1
20260831113249 31 248 1.6 8.0 0.00 0.00 0.00 46 1019.1
20260831112751 31 278 1.6 12.9 0.00 0.00 0.00 48 1019.1
20260831112249 31 229 1.6 12.9 0.00 0.00 0.00 47 1019.2
20260831111749 31 277 1.6 11.3 0.00 0.00 0.00 47 1019.2
20260831111248 31 276 3.2 11.3 0.00 0.00 0.00 47 1019.3
20260831110750 31 251 3.2 12.9 0.00 0.00 0.00 46 1019.3
20260831110251 31 283 1.6 12.9 0.00 0.00 0.00 44 1019.3
20260831105748 31 304 1.6 9.7 0.00 0.00 0.00 44 1019.3
20260831105247 30 273 1.6 12.9 0.00 0.00 0.00 44 1019.3
20260831104745 30 1 1.6 12.9 0.00 0.00 0.00 45 1019.4
20260831104246 30 253 1.6 11.3 0.00 0.00 0.00 47 1019.4
20260831103745 30 3 1.6 11.3 0.00 0.00 0.00 49 1019.4
20260831103241 30 324 1.6 8.0 0.00 0.00 0.00 51 1019.4
20260831102741 30 328 0.0 8.0 0.00 0.00 0.00 51 1019.4
20260831102241 30 309 1.6 11.3 0.00 0.00 0.00 53 1019.4
20260831101741 30 323 1.6 11.3 0.00 0.00 0.00 53 1019.6
20260831101240 29 275 0.0 9.7 0.00 0.00 0.00 57 1019.6
20260831100738 29 276 0.0 8.0 0.00 0.00 0.00 58 1019.5
20260831100238 29 276 1.6 14.5 0.00 0.00 0.00 59 1019.5
20260831095238 29 297 0.0 6.4 0.00 0.00 0.00 58 1019.6
20260831094736 29 316 1.6 8.0 0.00 0.00 0.00 57 1019.7
20260831093736 28 266 0.0 8.0 0.00 0.00 0.00 58 1019.7
20260831093234 28 288 1.6 11.3 0.00 0.00 0.00 58 1019.7
20260831092235 28 255 1.6 11.3 0.00 0.00 0.00 60 1019.8
20260831091736 28 307 0.0 8.0 0.00 0.00 0.00 64 1019.7
20260831090734 27 350 1.6 9.7 0.00 0.00 0.00 63 1019.7
20260831085728 27 276 1.6 6.4 0.00 0.00 0.00 65 1019.7
20260831085227 27 326 0.0 6.4 0.00 0.00 0.00 65 1019.8
20260831084726 27 258 0.0 4.8 0.00 0.00 0.00 65 1019.8
20260831084227 27 314 0.0 3.2 0.00 0.00 0.00 66 1019.7
20260831083726 27 283 1.6 9.7 0.00 0.00 0.00 67 1019.7
20260831083227 27 276 1.6 11.3 0.00 0.00 0.00 66 1019.7
20260831082728 27 292 0.0 11.3 0.00 0.00 0.00 66 1019.7
20260831082226 27 188 0.0 1.6 0.00 0.00 0.00 68 1019.7
20260831081726 27 199 0.0 4.8 0.00 0.00 0.00 68 1019.7
20260831081227 27 276 0.0 4.8 0.00 0.00 0.00 69 1019.7
20260831080724 26 321 0.0 0.0 0.00 0.00 0.00 71 1019.7
20260831080224 26 319 0.0 3.2 0.00 0.00 0.00 71 1019.7
20260831075726 26 317 0.0 9.7 0.00 0.00 0.00 71 1019.7
20260831075223 26 298 0.0 9.7 0.00 0.00 0.00 72 1019.7
20260831074721 26 254 0.0 6.4 0.00 0.00 0.00 73 1019.6
20260831074220 26 333 0.0 1.6 0.00 0.00 0.00 73 1019.5
20260831073221 25 336 0.0 6.4 0.00 0.00 0.00 74 1019.6
20260831072722 25 323 0.0 3.2 0.00 0.00 0.00 75 1019.5
20260831072221 25 324 0.0 6.4 0.00 0.00 0.00 75 1019.5
20260831071720 25 321 0.0 6.4 0.00 0.00 0.00 76 1019.5
20260831071219 25 303 0.0 3.2 0.00 0.00 0.00 77 1019.5
20260831070214 25 304 0.0 1.6 0.00 0.00 0.00 78 1019.3
20260831065715 24 336 0.0 1.6 0.00 0.00 0.00 78 1019.4
20260831065214 24 203 0.0 3.2 0.00 0.00 0.00 78 1019.5
20260831064715 24 201 0.0 3.2 0.00 0.00 0.00 79 1019.4
20260831064214 23 273 0.0 0.0 0.00 0.00 0.00 80 1019.4
20260831063714 23 274 0.0 0.0 0.00 0.00 0.00 81 1019.3
20260831063212 23 274 0.0 0.0 0.00 0.00 0.00 81 1019.4
20260831062714 22 274 0.0 0.0 0.00 0.00 0.00 81 1019.3
20260831062211 22 274 0.0 0.0 0.00 0.00 0.00 82 1019.3
20260831061713 22 274 0.0 0.0 0.00 0.00 0.00 84 1019.4
20260831061212 21 274 0.0 0.0 0.00 0.00 0.00 84 1019.4
20260831060209 21 274 0.0 0.0 0.00 0.00 0.00 85 1019.3
20260831055709 20 274 0.0 3.2 0.00 0.00 0.00 85 1019.3
20260831055205 20 274 0.0 3.2 0.00 0.00 0.00 85 1019.3
20260831054705 20 273 0.0 1.6 0.00 0.00 0.00 85 1019.2
20260831052702 19 274 0.0 4.8 0.00 0.00 0.00 84 1019.1
20260831052202 19 273 0.0 0.0 0.00 0.00 0.00 85 1019.1
20260831050700 19 274 0.0 0.0 0.00 0.00 0.00 84 1019.0
20260831050200 19 274 0.0 0.0 0.00 0.00 0.00 84 1018.9
20260831045702 18 274 0.0 0.0 0.00 0.00 0.00 84 1018.9
20260831045200 19 274 0.0 0.0 0.00 0.00 0.00 83 1019.0
20260831044701 19 274 0.0 0.0 0.00 0.00 0.00 83 1018.9
20260831043658 19 269 0.0 0.0 0.00 0.00 0.00 83 1019.0
20260831043159 19 269 0.0 0.0 0.00 0.00 0.00 82 1019.0
20260831042156 19 269 0.0 1.6 0.00 0.00 0.00 82 1018.9
20260831041656 19 267 0.0 1.6 0.00 0.00 0.00 82 1018.9
20260831041158 19 274 0.0 0.0 0.00 0.00 0.00 81 1018.8
20260831040157 19 274 0.0 0.0 0.00 0.00 0.00 81 1018.9
20260831035654 19 274 0.0 0.0 0.00 0.00 0.00 80 1018.9
20260831035151 19 274 0.0 0.0 0.00 0.00 0.00 80 1018.8
20260831034653 20 274 0.0 0.0 0.00 0.00 0.00 80 1018.9
20260831034152 20 274 0.0 0.0 0.00 0.00 0.00 80 1018.8
20260831033652 20 274 0.0 1.6 0.00 0.00 0.00 79 1018.8
20260831033152 20 274 0.0 3.2 0.00 0.00 0.00 79 1018.7
20260831032656 20 276 0.0 4.8 0.00 0.00 0.00 78 1018.7
20260831032152 20 276 0.0 4.8 0.00 0.00 0.00 78 1018.6
20260831031654 20 276 0.0 4.8 0.00 0.00 0.00 77 1018.6
20260831031147 20 274 0.0 4.8 0.00 0.00 0.00 77 1018.6
20260831030648 20 266 0.0 0.0 0.00 0.00 0.00 77 1018.6
20260831030149 20 266 0.0 0.0 0.00 0.00 0.00 76 1018.6
20260831025150 21 265 0.0 0.0 0.00 0.00 0.00 75 1018.7
20260831024648 21 267 0.0 1.6 0.00 0.00 0.00 75 1018.7
20260831024149 21 266 0.0 1.6 0.00 0.00 0.00 74 1018.6
20260831023648 21 263 0.0 0.0 0.00 0.00 0.00 74 1018.6
20260831023147 21 263 0.0 0.0 0.00 0.00 0.00 74 1018.6
20260831022640 21 263 0.0 0.0 0.00 0.00 0.00 74 1018.7
20260831022135 21 263 0.0 0.0 0.00 0.00 0.00 74 1018.6
20260831021629 21 262 0.0 4.8 0.00 0.00 0.00 73 1018.6
20260831021127 21 260 0.0 4.8 0.00 0.00 0.00 73 1018.7
20260831020617 21 259 0.0 4.8 0.00 0.00 0.00 72 1018.6
20260831020111 22 281 0.0 4.8 0.00 0.00 0.00 72 1018.6
20260831015606 22 281 0.0 1.6 0.00 0.00 0.00 72 1018.6
20260831015059 22 266 0.0 0.0 0.00 0.00 0.00 72 1018.7
20260831014555 22 265 0.0 0.0 0.00 0.00 0.00 72 1018.6
20260831014047 22 265 0.0 0.0 0.00 0.00 0.00 72 1018.7
20260831013542 22 265 0.0 0.0 0.00 0.00 0.00 72 1018.7
20260831012530 22 265 0.0 0.0 0.00 0.00 0.00 71 1018.7
20260831012028 22 265 0.0 0.0 0.00 0.00 0.00 71 1018.6
20260831011517 22 265 0.0 1.6 0.00 0.00 0.00 70 1018.7
20260831011011 22 266 0.0 1.6 0.00 0.00 0.00 70 1018.6
20260831010507 23 256 0.0 1.6 0.00 0.00 0.00 69 1018.7
20260831010007 23 255 0.0 1.6 0.00 0.00 0.00 69 1018.7
20260831005506 23 255 0.0 0.0 0.00 0.00 0.00 69 1018.6
20260831005004 23 255 0.0 0.0 0.00 0.00 0.00 69 1018.6
20260831004503 23 255 0.0 0.0 0.00 0.00 0.00 69 1018.6
20260831004004 23 255 0.0 0.0 0.00 0.00 0.00 69 1018.6
20260831003502 23 255 0.0 0.0 0.00 0.00 0.00 69 1018.7
20260831001957 23 255 0.0 0.0 0.00 0.00 0.00 68 1018.7
20260831001453 23 255 0.0 0.0 0.00 0.00 0.00 67 1018.8
20260831000951 23 255 0.0 0.0 0.00 0.00 0.00 67 1018.7
20260831000454 23 255 0.0 0.0 0.00 0.00 0.00 67 1018.7
20260830235951 23 255 0.0 0.0 0.00 0.00 0.00 66 1018.7
20260830235452 24 255 0.0 0.0 0.00 0.00 0.00 66 1018.7
20260830234947 24 255 0.0 0.0 0.00 0.00 0.00 65 1018.6
20260830234446 24 255 0.0 0.0 0.00 0.00 0.00 65 1018.7
20260830233943 24 255 0.0 3.2 0.00 0.00 0.00 65 1018.7
20260830233442 24 253 0.0 3.2 0.00 0.00 0.00 65 1018.6
20260830232952 24 285 0.0 1.6 0.00 0.00 0.00 64 1018.7
20260830231933 24 288 0.0 0.0 0.00 0.00 0.00 64 1018.6
20260830231430 25 289 0.0 0.0 0.00 0.00 0.00 64 1018.6
20260830230415 25 289 0.0 0.0 0.00 0.00 0.00 63 1018.5
20260830225909 25 289 0.0 0.0 0.00 0.00 0.00 63 1018.5
20260830225403 25 294 0.0 1.6 0.00 0.00 0.00 63 1018.5
20260830224858 25 293 0.0 4.8 0.00 0.00 0.00 63 1018.6
20260830224351 25 330 0.0 4.8 0.00 0.00 0.00 62 1018.5
20260830223846 25 275 0.0 1.6 0.00 0.00 0.00 62 1018.5
20260830223339 25 276 0.0 1.6 0.00 0.00 0.00 62 1018.5
20260830222834 25 275 0.0 3.2 0.00 0.00 0.00 62 1018.6
20260830221821 25 293 0.0 3.2 0.00 0.00 0.00 62 1018.4
20260830221322 25 284 0.0 6.4 0.00 0.00 0.00 61 1018.4
20260830220823 25 266 0.0 6.4 0.00 0.00 0.00 61 1018.3
20260830220321 25 280 0.0 0.0 0.00 0.00 0.00 61 1018.4
20260830215819 25 282 0.0 0.0 0.00 0.00 0.00 61 1018.3
20260830215318 25 282 0.0 0.0 0.00 0.00 0.00 61 1018.2
20260830214317 25 319 0.0 4.8 0.00 0.00 0.00 61 1018.2
20260830213816 25 267 0.0 4.8 0.00 0.00 0.00 61 1018.3
20260830213314 26 276 0.0 1.6 0.00 0.00 0.00 60 1018.3
20260830212812 26 276 0.0 1.6 0.00 0.00 0.00 60 1018.2
20260830212310 26 270 0.0 0.0 0.00 0.00 0.00 59 1018.2
20260830211810 26 270 0.0 1.6 0.00 0.00 0.00 59 1018.1
20260830211309 26 270 0.0 1.6 0.00 0.00 0.00 58 1018.1
20260830210307 26 274 0.0 1.6 0.00 0.00 0.00 58 1018.1
20260830205802 26 278 0.0 0.0 0.00 0.00 0.00 57 1018.1
20260830204243 26 275 0.0 0.0 0.00 0.00 0.00 57 1017.9
20260830203744 27 274 0.0 0.0 0.00 0.00 0.00 56 1017.9
20260830203223 27 273 0.0 0.0 0.00 0.00 0.00 56 1017.8
20260830202718 27 272 0.0 0.0 0.00 0.00 0.00 55 1017.8
20260830202211 27 273 0.0 1.6 0.00 0.00 0.00 54 1017.8
20260830201717 27 273 0.0 4.8 0.00 0.00 0.00 54 1017.7
20260830201213 27 274 0.0 8.0 0.00 0.00 0.00 54 1017.7
20260830200652 27 255 0.0 8.0 0.00 0.00 0.00 54 1017.8
20260830195648 27 307 1.6 9.7 0.00 0.00 0.00 55 1017.7
20260830195147 27 290 0.0 9.7 0.00 0.00 0.00 55 1017.6
20260830194643 27 286 0.0 4.8 0.00 0.00 0.00 54 1017.6
20260830194141 27 288 0.0 6.4 0.00 0.00 0.00 55 1017.6
20260830193642 27 280 0.0 6.4 0.00 0.00 0.00 55 1017.5
20260830193142 27 281 0.0 3.2 0.00 0.00 0.00 54 1017.6
20260830192642 28 269 0.0 3.2 0.00 0.00 0.00 54 1017.4
20260830192139 28 276 0.0 3.2 0.00 0.00 0.00 52 1017.4
20260830191638 28 285 0.0 1.6 0.00 0.00 0.00 52 1017.3
20260830191137 28 281 0.0 1.6 0.00 0.00 0.00 52 1017.3
20260830190635 28 277 0.0 0.0 0.00 0.00 0.00 52 1017.3
20260830190135 28 275 0.0 0.0 0.00 0.00 0.00 52 1017.3
20260830185635 28 275 0.0 0.0 0.00 0.00 0.00 53 1017.2
20260830185136 28 275 0.0 1.6 0.00 0.00 0.00 54 1017.2
20260830184634 28 274 0.0 1.6 0.00 0.00 0.00 54 1017.2
20260830184133 28 266 0.0 0.0 0.00 0.00 0.00 53 1017.1
20260830183635 28 266 0.0 0.0 0.00 0.00 0.00 52 1016.9
20260830183132 29 273 0.0 0.0 0.00 0.00 0.00 51 1016.8
20260830182625 29 304 0.0 0.0 0.00 0.00 0.00 50 1016.7
20260830182119 29 304 0.0 0.0 0.00 0.00 0.00 51 1016.8
20260830181612 30 305 0.0 0.0 0.00 0.00 0.00 51 1016.7
20260830181109 30 305 0.0 0.0 0.00 0.00 0.00 51 1016.7
20260830180607 30 305 0.0 0.0 0.00 0.00 0.00 51 1016.7
20260830180112 30 306 0.0 0.0 0.00 0.00 0.00 50 1016.6
20260830175046 31 311 0.0 0.0 0.00 0.00 0.00 49 1016.4
20260830174540 31 314 0.0 0.0 0.00 0.00 0.00 49 1016.2
20260830174031 31 314 0.0 0.0 0.00 0.00 0.00 48 1016.2
20260830173527 31 314 0.0 0.0 0.00 0.00 0.00 47 1016.2
20260830173023 32 314 0.0 0.0 0.00 0.00 0.00 46 1016.1
20260830172522 32 314 0.0 0.0 0.00 0.00 0.00 45 1016.2
20260830172021 32 314 0.0 0.0 0.00 0.00 0.00 46 1016.1
20260830171522 32 314 0.0 0.0 0.00 0.00 0.00 45 1016.1
20260830171019 33 319 0.0 0.0 0.00 0.00 0.00 45 1016.1
20260830170519 33 359 0.0 4.8 0.00 0.00 0.00 45 1016.0
20260830170015 33 0 0.0 4.8 0.00 0.00 0.00 44 1016.0
20260830165515 33 304 0.0 11.3 0.00 0.00 0.00 44 1016.0
20260830165017 33 279 0.0 11.3 0.00 0.00 0.00 44 1016.0
20260830164514 33 261 0.0 6.4 0.00 0.00 0.00 44 1016.0
20260830164013 33 217 0.0 6.4 0.00 0.00 0.00 43 1016.0
20260830163513 33 274 0.0 6.4 0.00 0.00 0.00 43 1015.8
20260830163012 34 271 0.0 6.4 0.00 0.00 0.00 42 1015.7
20260830162007 34 301 0.0 8.0 0.00 0.00 0.00 41 1015.7
20260830161506 34 359 1.6 8.0 0.00 0.00 0.00 41 1015.8
20260830160501 34 266 0.0 8.0 0.00 0.00 0.00 41 1015.8
20260830160000 34 323 0.0 8.0 0.00 0.00 0.00 40 1015.7
20260830155457 34 304 0.0 6.4 0.00 0.00 0.00 40 1015.8
20260830154958 34 265 0.0 6.4 0.00 0.00 0.00 40 1015.7
20260830154452 34 345 0.0 4.8 0.00 0.00 0.00 39 1015.8
20260830153442 34 354 1.6 8.0 0.00 0.00 0.00 39 1015.8
20260830152935 34 287 0.0 8.0 0.00 0.00 0.00 39 1015.7
20260830151935 35 268 1.6 8.0 0.00 0.00 0.00 40 1015.8
20260830151436 35 326 1.6 8.0 0.00 0.00 0.00 40 1015.7
20260830150935 35 236 0.0 6.4 0.00 0.00 0.00 39 1015.8
20260830150435 35 281 1.6 11.3 0.00 0.00 0.00 40 1016.0
20260830145934 34 274 1.6 12.9 0.00 0.00 0.00 40 1016.1
20260830145433 35 285 1.6 12.9 0.00 0.00 0.00 40 1016.2